FW5801 Weather Reports


Display with metric or nautical units.
time (UTC)temp
F
wind
direction
speed
MPH
gust
MPH
rain 1hr
in
rain 24hr
in
rain mn
in
humidity
%
barometer
mb
20260507114613 43 342 1.0 8.0 0.00 0.00 0.00 78 1014.9
20260507114100 42 327 2.0 6.0 0.00 0.00 0.00 79 1014.9
20260507113604 41 296 1.0 8.0 0.00 0.00 0.00 80 1014.7
20260507113058 41 311 1.0 8.0 0.00 0.00 0.00 81 1014.9
20260507112602 41 321 1.0 6.0 0.00 0.00 0.00 81 1014.9
20260507112059 40 283 1.0 7.0 0.00 0.00 0.00 82 1014.9
20260507111558 40 284 1.0 7.0 0.00 0.00 0.00 82 1014.7
20260507111059 40 306 1.0 7.0 0.00 0.00 0.00 82 1014.6
20260507110602 40 293 1.0 5.0 0.00 0.00 0.00 82 1014.5
20260507110059 40 281 1.0 7.0 0.00 0.00 0.00 82 1014.4
20260507105556 39 288 1.0 7.0 0.00 0.00 0.00 82 1014.4
20260507105058 39 302 2.0 7.0 0.00 0.00 0.00 81 1014.3
20260507104600 40 289 2.0 6.0 0.00 0.00 0.00 81 1014.3
20260507104059 40 0 1.0 6.0 0.00 0.00 0.00 81 1014.4
20260507103601 40 0 1.0 5.0 0.00 0.00 0.00 81 1014.4
20260507103058 40 0 0.0 5.0 0.00 0.00 0.00 81 1014.3
20260507102600 40 296 1.0 5.0 0.00 0.00 0.00 81 1014.3
20260507102100 40 292 2.0 5.0 0.00 0.00 0.00 81 1014.3
20260507101603 40 290 2.0 5.0 0.00 0.00 0.00 81 1014.2
20260507101059 40 289 1.0 4.0 0.00 0.00 0.00 81 1014.3
20260507100600 40 296 1.0 7.0 0.00 0.00 0.00 81 1014.3
20260507100059 40 0 1.0 8.0 0.00 0.00 0.00 81 1014.3
20260507095600 40 284 2.0 8.0 0.00 0.01 0.00 81 1014.2
20260507095101 40 0 0.0 4.0 0.00 0.01 0.00 81 1014.1
20260507094558 40 0 1.0 4.0 0.00 0.01 0.00 81 1014.1
20260507094100 40 0 1.0 4.0 0.00 0.01 0.00 81 1013.9
20260507093600 41 292 1.0 4.0 0.00 0.01 0.00 81 1013.9
20260507093100 41 288 1.0 4.0 0.00 0.01 0.00 81 1013.9
20260507092600 41 292 0.0 4.0 0.00 0.01 0.00 81 1013.9
20260507092100 41 296 1.0 4.0 0.00 0.01 0.00 81 1013.9
20260507091600 41 286 0.0 4.0 0.00 0.01 0.00 81 1013.9
20260507091100 41 296 0.0 2.0 0.00 0.01 0.00 81 1013.9
20260507090600 41 0 0.0 3.0 0.00 0.01 0.00 81 1013.9
20260507090105 41 281 0.0 3.0 0.00 0.01 0.00 81 1013.9
20260507085603 41 0 0.0 4.0 0.00 0.05 0.00 81 1013.9
20260507085100 41 0 0.0 4.0 0.00 0.05 0.00 81 1013.7
20260507084600 41 0 0.0 4.0 0.00 0.05 0.00 81 1013.9
20260507084059 42 289 1.0 4.0 0.00 0.05 0.00 80 1013.9
20260507083559 42 286 1.0 5.0 0.00 0.05 0.00 80 1013.8
20260507083100 42 292 1.0 5.0 0.00 0.05 0.00 80 1013.8
20260507082603 42 300 1.0 5.0 0.00 0.05 0.00 80 1013.9
20260507082059 42 290 1.0 4.0 0.00 0.05 0.00 79 1013.8
20260507081600 42 286 1.0 4.0 0.00 0.05 0.00 79 1013.8
20260507081056 43 0 0.0 4.0 0.00 0.05 0.00 79 1014.0
20260507080556 43 291 1.0 4.0 0.00 0.05 0.00 79 1013.8
20260507075602 43 278 0.0 4.0 0.00 0.09 0.00 79 1014.0
20260507075103 43 290 1.0 4.0 0.00 0.09 0.00 79 1013.9
20260507074612 42 277 0.0 4.0 0.00 0.09 0.00 79 1014.0
20260507074059 42 275 0.0 0.0 0.00 0.09 0.00 79 1014.0
20260507073559 42 0 0.0 0.0 0.00 0.09 0.00 80 1014.0
20260507073102 42 0 0.0 0.0 0.00 0.09 0.00 80 1013.9
20260507072600 42 0 0.0 4.0 0.00 0.09 0.00 80 1013.9
20260507072059 42 0 0.0 4.0 0.00 0.09 0.00 80 1013.9
20260507071559 42 0 0.0 4.0 0.00 0.09 0.00 81 1014.0
20260507071059 42 0 2.0 4.0 0.00 0.09 0.00 81 1014.0
20260507070556 42 0 0.0 2.0 0.00 0.09 0.00 82 1014.0
20260507070116 42 0 0.0 2.0 0.00 0.09 0.00 82 1014.0
20260507065558 42 0 0.0 2.0 0.00 0.14 0.00 83 1013.9
20260507065056 41 289 0.0 2.0 0.00 0.14 0.00 83 1014.0
20260507064612 41 0 0.0 2.0 0.00 0.14 0.00 84 1014.0
20260507064056 41 290 0.0 2.0 0.00 0.14 0.00 85 1014.0
20260507063559 41 0 0.0 0.0 0.00 0.14 0.00 85 1014.0
20260507063101 41 0 0.0 0.0 0.00 0.14 0.00 85 1014.0
20260507062559 41 0 0.0 0.0 0.00 0.14 0.00 86 1014.1
20260507062104 41 0 0.0 0.0 0.00 0.14 0.00 85 1014.0
20260507061600 41 0 0.0 0.0 0.00 0.14 0.00 85 1014.1
20260507061059 40 0 0.0 0.0 0.00 0.14 0.00 85 1014.1
20260507060602 40 0 0.0 0.0 0.00 0.14 0.00 84 1014.1
20260507060059 40 0 0.0 0.0 0.00 0.14 0.00 84 1014.2
20260507055559 40 0 0.0 0.0 0.00 0.20 0.00 84 1014.2
20260507055059 41 0 0.0 0.0 0.00 0.20 0.00 83 1014.1
20260507054605 41 0 0.0 0.0 0.00 0.20 0.00 83 1014.2
20260507054100 41 0 0.0 0.0 0.00 0.20 0.00 83 1014.2
20260507053556 41 0 0.0 2.0 0.00 0.20 0.00 83 1014.4
20260507053057 41 0 0.0 2.0 0.00 0.20 0.00 83 1014.4
20260507052556 41 0 0.0 1.0 0.00 0.20 0.00 83 1014.5
20260507052056 41 0 0.0 2.0 0.00 0.20 0.00 84 1014.5
20260507051603 40 0 0.0 2.0 0.00 0.20 0.00 84 1014.5
20260507051056 40 0 0.0 2.0 0.00 0.20 0.00 85 1014.5
20260507050559 40 0 0.0 0.0 0.00 0.20 0.00 84 1014.4
20260507050058 40 0 0.0 0.0 0.00 0.20 0.00 84 1014.5
20260507045602 40 0 0.0 0.0 0.00 0.23 0.00 84 1014.4
20260507045100 41 0 0.0 0.0 0.00 0.23 0.00 84 1014.5
20260507044559 41 0 0.0 0.0 0.00 0.23 0.00 84 1014.4
20260507044056 41 0 0.0 0.0 0.00 0.23 0.00 83 1014.4
20260507043556 41 0 0.0 0.0 0.00 0.23 0.00 83 1014.5
20260507043056 41 0 0.0 0.0 0.00 0.23 0.00 83 1014.5
20260507042557 41 0 0.0 0.0 0.00 0.23 0.00 83 1014.4
20260507042058 41 0 0.0 0.0 0.00 0.23 0.00 83 1014.4
20260507041557 41 0 0.0 0.0 0.00 0.23 0.00 83 1014.5
20260507041056 41 0 0.0 0.0 0.00 0.23 0.00 83 1014.4
20260507040557 41 0 0.0 0.0 0.00 0.23 0.00 83 1014.4
20260507040109 42 0 0.0 0.0 0.00 0.23 0.00 82 1014.5
20260507035559 42 0 0.0 0.0 0.00 0.25 0.23 82 1014.4
20260507035102 42 0 0.0 0.0 0.00 0.25 0.23 81 1014.5
20260507034606 42 0 0.0 0.0 0.00 0.25 0.23 80 1014.5
20260507034059 42 0 0.0 0.0 0.00 0.25 0.23 79 1014.5
20260507033556 42 0 0.0 0.0 0.00 0.25 0.23 79 1014.6
20260507033103 42 0 0.0 0.0 0.00 0.25 0.23 78 1014.6
20260507032600 43 0 0.0 0.0 0.00 0.25 0.23 77 1014.7
20260507032104 43 0 0.0 0.0 0.00 0.25 0.23 77 1014.7
20260507031619 43 0 0.0 0.0 0.00 0.25 0.23 77 1014.8
20260507031058 43 0 0.0 0.0 0.00 0.25 0.23 77 1014.8
20260507030556 44 0 0.0 0.0 0.00 0.25 0.23 77 1014.8
20260507030057 44 0 0.0 0.0 0.00 0.25 0.23 76 1015.0
20260507025556 44 0 0.0 0.0 0.00 0.33 0.23 76 1014.9
20260507025056 45 0 0.0 0.0 0.00 0.33 0.23 75 1015.0
20260507024559 45 0 0.0 0.0 0.00 0.33 0.23 75 1015.0
20260507024056 45 0 0.0 0.0 0.00 0.33 0.23 75 1014.9
20260507023559 46 0 0.0 0.0 0.00 0.33 0.23 74 1014.8
20260507023100 46 0 0.0 0.0 0.00 0.33 0.23 73 1014.9
20260507022601 46 0 0.0 0.0 0.00 0.33 0.23 73 1014.8
20260507022056 47 0 0.0 0.0 0.00 0.33 0.23 73 1014.7
20260507021601 47 0 0.0 0.0 0.00 0.33 0.23 73 1014.6
20260507021059 48 0 0.0 0.0 0.00 0.33 0.23 72 1014.5
20260507020558 48 0 0.0 0.0 0.00 0.33 0.23 71 1014.5
20260507015559 49 0 0.0 0.0 0.00 0.41 0.23 72 1014.5
20260507015056 49 0 0.0 1.0 0.00 0.41 0.23 72 1014.3
20260507014559 50 0 0.0 3.0 0.00 0.41 0.23 71 1014.4
20260507014056 50 0 0.0 3.0 0.00 0.41 0.23 71 1014.3
20260507013559 50 338 0.0 4.0 0.00 0.41 0.23 70 1014.3
20260507013118 50 325 0.0 4.0 0.00 0.41 0.23 70 1014.2
20260507012556 50 324 1.0 3.0 0.00 0.41 0.23 70 1014.2
20260507012059 50 0 0.0 2.0 0.00 0.41 0.23 71 1014.4
20260507011609 50 0 0.0 2.0 0.00 0.41 0.23 71 1014.3
20260507011102 51 0 0.0 0.0 0.00 0.41 0.23 71 1014.2
20260507010603 51 0 0.0 0.0 0.00 0.41 0.23 71 1014.0
20260507010108 51 0 0.0 0.0 0.00 0.41 0.23 70 1014.1
20260507005600 51 0 0.0 0.0 0.00 0.45 0.23 70 1014.0
20260507005105 51 0 0.0 1.0 0.00 0.45 0.23 70 1014.0
20260507004601 51 0 0.0 1.0 0.00 0.45 0.23 70 1014.0
20260507004059 51 0 0.0 1.0 0.00 0.45 0.23 70 1013.7
20260507003604 51 0 0.0 2.0 0.00 0.45 0.23 69 1013.6
20260507003059 52 0 0.0 3.0 0.00 0.45 0.23 69 1013.6
20260507002600 52 0 0.0 3.0 0.00 0.45 0.23 68 1013.8
20260507002059 52 306 1.0 5.0 0.00 0.45 0.23 67 1013.6
20260507001558 52 0 1.0 5.0 0.00 0.45 0.23 66 1013.4
20260507001058 52 327 2.0 4.0 0.00 0.45 0.23 64 1013.5
20260507000600 52 325 2.0 5.0 0.00 0.45 0.23 64 1013.5
20260507000059 53 347 2.0 5.0 0.00 0.45 0.23 64 1013.4
20260506235601 53 0 2.0 5.0 0.00 0.48 0.23 64 1013.3
20260506235105 53 316 1.0 8.0 0.00 0.48 0.23 64 1013.3
20260506234558 53 327 2.0 8.0 0.00 0.48 0.23 63 1013.3
20260506234101 53 337 2.0 9.0 0.00 0.48 0.23 63 1013.2
20260506233600 53 321 3.0 9.0 0.00 0.48 0.23 63 1013.4
20260506233113 54 335 4.0 9.0 0.00 0.48 0.23 62 1013.2
20260506232602 54 347 4.0 9.0 0.00 0.48 0.23 62 1013.4
20260506232059 53 336 4.0 10.0 0.00 0.48 0.23 62 1013.3
20260506231618 53 341 5.0 10.0 0.00 0.48 0.23 62 1013.4
20260506231100 53 341 4.0 9.0 0.00 0.48 0.23 62 1013.4
20260506230559 53 312 4.0 9.0 0.00 0.48 0.23 62 1013.5
20260506230105 53 334 3.0 8.0 0.00 0.48 0.23 62 1013.6
20260506225603 54 319 3.0 8.0 0.00 0.52 0.23 62 1013.7
20260506225100 54 314 3.0 10.0 0.00 0.52 0.23 61 1013.6
20260506224600 54 311 4.0 11.0 0.00 0.52 0.23 62 1013.7
20260506224059 54 331 5.0 11.0 0.00 0.52 0.23 62 1013.7
20260506223600 54 322 5.0 11.0 0.00 0.52 0.23 62 1013.7
20260506223057 54 302 3.0 9.0 0.00 0.52 0.23 63 1013.6
20260506222600 54 321 4.0 9.0 0.00 0.52 0.23 62 1013.8
20260506222100 54 325 4.0 11.0 0.00 0.52 0.23 62 1013.7
20260506221601 54 323 4.0 11.0 0.00 0.52 0.23 61 1013.8
20260506221100 54 323 4.0 11.0 0.00 0.52 0.23 61 1013.9
20260506220602 54 327 4.0 9.0 0.00 0.52 0.23 61 1013.9
20260506220101 54 313 3.0 9.0 0.00 0.52 0.23 62 1013.7
20260506215602 54 336 3.0 13.0 0.00 0.61 0.23 61 1013.5
20260506215110 55 360 6.0 13.0 0.00 0.61 0.23 59 1013.4
20260506214603 55 301 7.0 13.0 0.00 0.61 0.23 60 1013.4
20260506214100 55 343 5.0 13.0 0.00 0.61 0.23 60 1013.3
20260506213559 55 316 4.0 11.0 0.00 0.61 0.23 60 1013.2
20260506213112 55 341 4.0 11.0 0.00 0.61 0.23 62 1013.1
20260506212600 55 301 4.0 10.0 0.00 0.61 0.23 62 1013.0
20260506212103 55 341 4.0 8.0 0.00 0.61 0.23 63 1013.0
20260506211612 55 311 3.0 11.0 0.00 0.61 0.23 63 1013.0
20260506211100 55 344 6.0 11.0 0.00 0.61 0.23 62 1012.9
20260506210600 55 334 6.0 11.0 0.00 0.61 0.23 62 1013.0
20260506210100 55 360 3.0 10.0 0.00 0.61 0.23 61 1013.0
20260506205601 55 319 5.0 10.0 0.00 0.88 0.23 60 1013.0
20260506205101 55 324 5.0 13.0 0.00 0.88 0.23 62 1013.1
20260506204602 55 336 7.0 13.0 0.00 0.88 0.23 59 1013.0
20260506204059 55 351 5.0 11.0 0.00 0.88 0.23 60 1012.9
20260506203600 56 327 5.0 11.0 0.00 0.88 0.23 61 1013.0
20260506203103 56 352 3.0 11.0 0.00 0.88 0.23 62 1013.0
20260506202600 56 342 5.0 11.0 0.00 0.88 0.23 61 1013.0
20260506202101 56 9 5.0 13.0 0.00 0.88 0.23 62 1012.9
20260506201604 56 355 6.0 13.0 0.00 0.88 0.23 62 1012.8
20260506201100 56 323 5.0 13.0 0.00 0.88 0.23 63 1012.7
20260506200600 57 338 4.0 12.0 0.00 0.88 0.23 64 1012.6
20260506200101 56 326 6.0 12.0 0.00 0.88 0.23 63 1012.7
20260506195601 56 360 6.0 12.0 0.00 0.88 0.23 63 1012.7
20260506195100 56 360 7.0 12.0 0.00 0.88 0.23 64 1012.6
20260506194602 56 9 5.0 12.0 0.00 0.88 0.23 63 1012.8
20260506194103 56 324 6.0 12.0 0.00 0.88 0.23 63 1012.8
20260506193602 56 319 5.0 13.0 0.00 0.88 0.23 63 1012.8
20260506193102 56 360 6.0 13.0 0.00 0.88 0.23 62 1012.8
20260506192600 57 43 6.0 15.0 0.00 0.88 0.23 62 1012.6
20260506192102 57 52 8.0 17.0 0.00 0.88 0.23 62 1012.8
20260506191601 57 333 8.0 17.0 0.00 0.88 0.23 61 1012.7
20260506191103 57 340 7.0 15.0 0.00 0.88 0.23 60 1012.5
20260506190601 58 59 7.0 13.0 0.00 0.88 0.23 61 1012.5
20260506190100 58 337 5.0 12.0 0.00 0.88 0.23 62 1012.5
20260506185600 58 286 5.0 15.0 0.00 0.88 0.23 60 1012.4
20260506185100 58 331 8.0 15.0 0.00 0.88 0.23 61 1012.4
20260506184622 58 36 8.0 15.0 0.00 0.88 0.23 62 1012.3
20260506184100 58 35 7.0 13.0 0.00 0.88 0.23 62 1012.5
20260506183557 58 355 5.0 12.0 0.00 0.88 0.23 63 1012.5
20260506183056 58 360 4.0 12.0 0.00 0.88 0.23 63 1012.4
20260506182558 58 350 6.0 12.0 0.00 0.88 0.23 64 1012.5
20260506182058 58 338 4.0 9.0 0.00 0.88 0.23 63 1012.5
20260506181557 57 360 4.0 12.0 0.00 0.88 0.23 64 1012.6
20260506181059 58 355 6.0 12.0 0.00 0.88 0.23 63 1012.6
20260506180557 58 340 2.0 12.0 0.00 0.88 0.23 64 1012.7
20260506175559 57 355 1.0 12.0 0.00 0.88 0.23 63 1012.6
20260506175056 57 360 3.0 13.0 0.00 0.88 0.23 64 1012.6
20260506174556 57 360 4.0 13.0 0.00 0.88 0.23 64 1012.7
20260506174056 57 338 3.0 12.0 0.00 0.88 0.23 65 1012.7
20260506173556 57 45 5.0 11.0 0.00 0.88 0.23 63 1012.7
20260506173108 58 336 5.0 11.0 0.00 0.88 0.23 65 1012.7
20260506172556 57 326 4.0 11.0 0.00 0.88 0.23 66 1012.8
20260506172056 57 63 4.0 12.0 0.00 0.88 0.23 64 1012.9
20260506171609 57 332 5.0 13.0 0.00 0.88 0.23 64 1012.9
20260506171057 57 343 7.0 13.0 0.00 0.88 0.23 65 1012.8
20260506170556 57 343 4.0 14.0 0.00 0.88 0.23 64 1012.7
20260506165559 57 355 7.0 12.0 0.00 0.88 0.23 65 1012.8
20260506165056 57 360 3.0 12.0 0.00 0.88 0.23 68 1012.7
20260506164618 56 360 6.0 13.0 0.00 0.88 0.23 65 1012.8
20260506164056 56 26 7.0 13.0 0.00 0.88 0.23 66 1012.8
20260506163556 56 342 5.0 11.0 0.00 0.88 0.23 67 1012.8
20260506163106 56 86 2.0 11.0 0.00 0.88 0.23 65 1012.7
20260506162556 56 355 3.0 11.0 0.00 0.88 0.23 66 1012.6
20260506162056 55 22 2.0 10.0 0.00 0.88 0.23 68 1012.8
20260506161559 55 24 3.0 12.0 0.00 0.88 0.23 64 1013.0
20260506161056 55 355 3.0 12.0 0.00 0.88 0.23 67 1013.2
20260506160556 55 27 4.0 12.0 0.00 0.88 0.23 66 1013.2
20260506160111 54 352 4.0 11.0 0.00 0.88 0.23 68 1013.2
20260506155556 54 360 4.0 10.0 0.00 0.88 0.23 67 1013.2
20260506155056 54 360 5.0 10.0 0.00 0.88 0.23 67 1013.0
20260506154557 53 347 5.0 12.0 0.00 0.88 0.23 72 1012.7
20260506154059 53 317 4.0 12.0 0.00 0.88 0.23 70 1012.3
20260506153559 52 315 6.0 12.0 0.00 0.88 0.23 70 1012.4
20260506153103 52 336 4.0 11.0 0.00 0.88 0.23 71 1012.3
20260506152555 52 355 6.0 13.0 0.00 0.88 0.23 71 1012.3
20260506152056 51 25 7.0 13.0 0.00 0.88 0.23 69 1012.1
20260506151558 52 355 8.0 12.0 0.00 0.88 0.23 69 1012.2
20260506151056 51 27 4.0 12.0 0.00 0.88 0.23 69 1012.2
20260506150556 51 346 7.0 12.0 0.00 0.88 0.23 69 1012.3
20260506150055 51 17 7.0 12.0 0.00 0.88 0.23 67 1012.0
20260506145558 51 41 4.0 11.0 0.00 0.88 0.23 70 1011.9
20260506145056 51 24 3.0 13.0 0.00 0.88 0.23 70 1011.6
20260506144556 51 352 7.0 13.0 0.00 0.88 0.23 70 1011.9
20260506144056 50 343 6.0 12.0 0.00 0.88 0.23 73 1011.9
20260506143556 50 18 5.0 13.0 0.00 0.88 0.23 75 1011.8
20260506143058 49 345 8.0 13.0 0.00 0.88 0.23 75 1012.1
20260506142556 49 11 6.0 12.0 0.00 0.88 0.23 76 1012.1
20260506142055 49 14 7.0 12.0 0.00 0.88 0.23 76 1012.1
20260506141611 48 360 6.0 12.0 0.00 0.88 0.23 78 1012.0
20260506141057 48 336 6.0 13.0 0.00 0.88 0.23 78 1011.8
20260506140558 48 351 7.0 13.0 0.00 0.88 0.23 79 1011.8
20260506140057 48 309 5.0 10.0 0.00 0.88 0.23 79 1011.6
20260506135556 48 348 6.0 14.0 0.00 0.88 0.23 80 1011.6
20260506135056 48 11 6.0 14.0 0.00 0.88 0.23 79 1011.6
20260506134557 48 9 7.0 13.0 0.00 0.88 0.23 80 1011.3
20260506134056 48 350 7.0 13.0 0.00 0.88 0.23 81 1011.2
20260506133559 47 15 4.0 12.0 0.00 0.88 0.23 82 1011.0
20260506133106 47 344 5.0 12.0 0.00 0.88 0.23 82 1011.1
20260506132556 47 350 5.0 12.0 0.00 0.88 0.23 83 1011.1
20260506132056 47 350 2.0 11.0 0.00 0.88 0.23 84 1011.2
20260506131558 46 338 4.0 10.0 0.00 0.88 0.23 85 1011.0
20260506131057 46 352 4.0 11.0 0.00 0.88 0.23 84 1011.0
20260506130556 46 337 4.0 14.0 0.00 0.88 0.23 84 1010.8
20260506130057 45 351 8.0 14.0 0.00 0.88 0.23 84 1010.9
20260506125556 45 348 8.0 12.0 0.00 0.88 0.23 84 1010.8
20260506125056 45 351 5.0 13.0 0.00 0.88 0.23 85 1010.9
20260506124557 45 351 8.0 13.0 0.00 0.88 0.23 85 1011.1
20260506124056 45 9 8.0 13.0 0.00 0.88 0.23 85 1011.0
20260506123556 45 339 5.0 11.0 0.00 0.88 0.23 86 1010.9
20260506123056 45 9 4.0 13.0 0.00 0.88 0.23 87 1010.7
20260506122556 45 336 8.0 13.0 0.00 0.88 0.23 88 1010.7
20260506122100 45 350 5.0 13.0 0.00 0.88 0.23 89 1010.6
20260506121613 45 337 6.0 13.0 0.00 0.88 0.23 89 1010.3
20260506121100 45 9 7.0 13.0 0.00 0.88 0.23 90 1010.2
20260506120600 45 342 5.0 11.0 0.00 0.88 0.23 91 1009.8
20260506120120 45 340 7.0 11.0 0.00 0.88 0.23 91 1009.7
20260506115600 44 342 7.0 12.0 0.00 0.88 0.23 91 1009.8
20260506115059 44 350 4.0 12.0 0.00 0.88 0.23 92 1009.8